This demonstration page uses our WeatherBlox Daily Observations layout. Learn more.

Left ArrowRight Arrow

Hourly Observations for October 31, 2016

Temp ( °F °C ) Dew Point ( °F °C ) Humidity (%) Winds ( mph kmh ) Pressure ( in mb ) Visibility ( mi km ) Precip ( " mm )
12:53 am 00:53 Cloudy 47 8.3 41 5 80 80 ENE 16 26 29.54 1001 10 16 0.00 0.03
1:53 am 01:53 Cloudy 46 7.8 41 5 83 83 ENE 15 24 29.55 1001 10 16 0.00 0.03
2:53 am 02:53 Cloudy 46 7.8 41 5 83 83 ENE 15 24 29.52 1000 10 16 0.00 0.03
3:53 am 03:53 Cloudy with Light Rain 45 7.2 43 6.1 93 93 E 12 19 29.52 1000 10 16 0.01 0.25
4:53 am 04:53 Cloudy with Light Rain 44 6.7 43 6.1 96 96 E 10 17 29.49 999 10 16 0.03 0.76
5:53 am 05:53 Cloudy with Light Rain 44 6.7 44 6.7 100 100 E 9 15 29.49 999 10 16 0.04 1.02
6:00 am 06:00 Cloudy with Light Rain 45 7 45 7 100 100 E 9 15 29.50 999 10 16 0.00 0.00
6:53 am 06:53 Cloudy with Rain 44 6.7 44 6.7 100 100 ENE 10 17 29.49 999 5 8 0.15 3.81
7:28 am 07:28 Cloudy with Rain 43 6 43 6 100 100 ENE 9 15 29.50 999 4 6 0.00 0.00
7:48 am 07:48 Cloudy with Rain 45 7 43 6 93 93 ENE 8 13 29.50 999 4 6 0.00 0.00
7:53 am 07:53 Cloudy with Light Rain 44 6.7 43 6.1 96 96 ENE 12 19 29.48 998 6 10 0.20 5.08
8:53 am 08:53 Cloudy with Light Rain 48 8.9 43 6.1 83 83 SW 24 39 29.46 998 10 16 0.02 0.51
9:00 am 09:00 Cloudy with Light Rain 48 9 43 6 82 82 SW 28 44 29.44 997 10 16 0.00 0.00
9:53 am 09:53 Cloudy with Light Rain 47 8.3 42 5.6 83 83 SW 25 41 29.45 997 10 16 0.00 0.03
10:53 am 10:53 Cloudy 45 7.2 40 4.4 83 83 WSW 30 48 29.47 998 10 16 0.00 0.03
11:37 am 11:37 Cloudy 44 6.7 40 4.4 85 85 WSW 28 44 29.50 999 10 16 0.00 0.00
11:53 am 11:53 Cloudy with Light Rain 43 6.1 40 4.4 89 89 WSW 29 46 29.50 999 10 16 0.00 0.03
12:14 pm 12:14 Cloudy with Light Rain 43 6 39 4 87 87 WSW 28 44 29.50 999 9 14 0.00 0.00
12:21 pm 12:21 Cloudy with Light Rain 43 6.1 41 5 93 93 WSW 26 43 29.50 999 10 16 0.01 0.25
12:53 pm 12:53 Cloudy with Light Rain 43 6.1 41 5 93 93 W 26 43 29.52 1000 10 16 0.03 0.76
1:53 pm 13:53 Cloudy with Light Rain 43 6.1 41 5 93 93 W 26 43 29.56 1001 6 10 0.04 1.02
2:53 pm 14:53 Cloudy with Light Rain 42 5.6 41 5 96 96 W 23 37 29.62 1003 10 16 0.04 1.02
3:11 pm 15:11 Cloudy with Light Rain 42 5.6 41 5 96 96 W 22 35 29.62 1003 9 14 0.01 0.25
3:53 pm 15:53 Cloudy with Light Rain 42 5.6 41 5 96 96 W 15 24 29.66 1004 9 14 0.04 1.02
4:05 pm 16:05 Cloudy with Light Rain 42 5.6 41 5 96 96 W 12 19 29.68 1005 8 13 0.01 0.25
4:23 pm 16:23 Cloudy with Light Rain 42 5.6 41 5 96 96 W 12 19 29.71 1006 8 13 0.02 0.51
4:53 pm 16:53 Cloudy with Light Rain 42 5.6 41 5 96 96 W 7 11 29.69 1005 7 11 0.04 1.02
5:45 pm 17:45 Cloudy with Light Rain 42 5.6 41 5 96 96 SSW 9 15 29.74 1007 9 14 0.03 0.76
5:53 pm 17:53 Cloudy with Light Rain 42 5.6 41 5 96 96 SSW 12 19 29.70 1006 9 14 0.03 0.76
6:53 pm 18:53 Cloudy 42 5.6 41 5 96 96 SSE 3 6 29.69 1005 10 16 0.02 0.51
7:53 pm 19:53 Cloudy 41 5 41 5 100 100 S 6 9 29.69 1006 10 16 0.00 0.00
8:53 pm 20:53 Cloudy 42 5.6 40 4.4 92 92 S 7 11 29.68 1005 10 16 0.00 0.00
9:53 pm 21:53 Mostly Cloudy 40 4.4 39 3.9 97 97 W 6 9 29.68 1005 10 16 0.00 0.00
10:53 pm 22:53 Clear 42 5.6 38 3.3 85 85 SSW 15 24 29.69 1005 10 16 0.00 0.00
11:53 pm 23:53 Cloudy 41 5 38 3.3 89 89 SW 16 26 29.70 1006 10 16 0.00 0.00

Powered by AerisWeather